Helicity
30 -55 -21 46 -13 -28 18 24 -27 -21 -21 -32 -35 7 41 25 7 34 10 16 20 14 9 -7 1 11 18 17 17 27 43 71 79 79 73 68 69 70 69 66 61 52 48 50 52 47 45 45 40
-10 -11 -5 -6 -35 -6 35 11 -23 -11 -25 -17 9 -0 23 35 47 58 8 -0 12 12 -8 -1 18 15 18 14 12 15 31 41 57 63 63 67 69 69 66 62 55 51 51 49 47 46 45 46 44
-26 -39 -12 -18 10 84 63 16 -7 -7 -7 -16 4 3 -1 10 48 6 10 6 10 18 6 19 17 26 21 11 9 10 17 26 29 34 37 41 45 49 47 46 51 57 59 63 62 59 61 61 55
-10 4 -4 13 62 101 99 48 17 6 -10 -1 -7 -14 -6 -15 -9 -6 -5 -4 6 17 24 15 18 18 14 11 -1 -1 -0 3 8 10 9 12 17 21 25 26 28 29 31 39 49 61 68 69 65
-11 -14 -1 44 89 79 46 36 -2 3 5 -2 -52 -31 -39 -49 -31 -3 -0 -9 13 33 7 10 16 8 8 3 1 -5 -2 -6 -9 -4 1 7 9 6 3 -2 -5 -2 4 8 16 32 44 53 57
-9 -6 -12 60 86 97 56 4 -26 -21 10 -3 9 24 4 -28 -16 6 2 11 18 4 -5 2 9 7 -2 -7 -5 -2 -3 -10 -11 -6 1 -3 -9 -12 -12 -12 -11 -6 -7 -1 9 16 19 19 34
12 9 39 29 74 73 50 15 5 5 11 27 -0 54 56 44 -7 -2 -4 -1 4 -9 -15 -14 3 5 8 9 5 -10 -12 -14 -13 -3 6 -0 1 12 16 26 30 41 34 27 27 24 21 24 21
66 52 27 26 25 89 26 -1 -35 -9 51 12 -11 34 72 8 -18 -4 -3 -6 -6 -14 -5 2 -0 10 -11 19 14 8 19 34 44 56 61 60 23 40 34 14 81 70 69 70 64 42 41 37 35
87 33 11 42 24 70 20 7 1 -20 47 17 8 77 67 -5 -4 -0 3 13 8 12 15 23 25 27 34 45 47 35 36 22 29 48 42 9 27 35 40 86 52 49 53 48 67 86 99 63 39
35 1 -13 56 8 35 13 -9 18 8 32 70 104 55 38 34 27 58 37 10 16 31 35 73 65 61 42 52 43 36 39 53 51 47 38 47 51 50 29 34 16 12 22 13 20 27 27 34 41
25 -18 51 16 -15 8 32 46 10 45 60 43 93 67 23 31 50 46 53 49 49 46 67 89 78 67 61 53 43 58 63 66 62 53 42 50 47 44 37 44 31 24 32 23 20 20 5 28 34
32 33 21 27 21 -1 10 44 123 42 114 100 92 55 8 23 42 43 49 53 65 83 91 99 102 86 82 72 90 95 98 88 57 45 75 71 78 71 73 58 33 31 35 40 30 33 38 13 14
30 58 42 52 45 -7 53 69 103 151 113 87 97 59 51 39 52 44 34 45 61 80 97 98 102 108 109 116 114 116 114 95 88 91 91 102 80 77 69 48 48 39 35 43 43 45 44 38 34
74 72 67 55 42 40 94 93 47 73 86 108 108 68 56 42 38 48 52 48 55 68 94 115 131 137 130 114 117 96 98 96 102 100 106 113 104 95 87 83 79 75 73 71 63 66 65 59 50
70 73 58 71 55 56 80 84 113 67 90 116 129 94 65 48 56 65 64 67 70 79 94 97 97 113 110 97 86 87 90 87 97 95 92 103 110 110 92 89 82 80 67 64 72 66 56 59 62
38 17 47 63 37 44 4 138 45 58 90 128 120 109 90 86 76 75 85 97 97 89 100 115 102 77 67 59 56 58 68 67 84 88 88 103 107 107 85 87 85 81 70 72 71 64 63 65 70
33 23 -1 86 45 23 -15 157 105 57 94 126 102 94 97 94 93 96 116 108 111 109 115 118 79 65 43 34 39 46 46 57 60 65 78 85 74 78 77 71 79 61 57 58 58 58 53 55 65
43 14 28 41 62 29 58 180 123 126 135 106 78 109 111 108 99 102 121 138 138 144 134 98 82 74 43 26 17 34 53 71 71 80 87 73 67 63 61 61 54 51 67 74 73 60 60 45 52
50 10 37 130 90 72 107 136 98 142 145 109 92 103 127 94 112 129 157 139 125 131 105 89 83 79 52 48 47 49 73 99 117 117 111 115 110 108 98 110 99 91 82 72 69 59 58 52 104
42 19 83 53 24 17 80 107 97 101 127 116 108 111 110 120 115 133 131 108 124 122 85 91 80 69 49 17 11 23 45 79 100 135 128 131 127 120 118 104 98 90 90 99 96 101 100 106 89
7 -6 47 68 64 40 62 56 89 109 148 162 122 137 126 127 128 128 111 135 124 105 107 89 73 45 22 -17 -27 -8 17 52 114 114 134 134 131 126 126 120 116 113 112 138 113 113 112 92 85
32 26 34 52 1 58 -1 46 58 128 145 183 161 168 150 143 140 135 151 140 114 111 95 75 50 19 13 -1 -25 -4 15 53 71 87 114 88 92 94 99 99 105 109 114 109 94 67 43 49 56
99 44 32 4 39 45 37 63 152 43 45 105 149 197 182 145 140 147 148 115 115 104 86 58 34 43 24 -30 -31 -14 44 47 57 63 63 66 79 74 93 94 100 95 81 63 52 40 39 22 26
66 70 37 26 40 29 101 50 76 93 15 49 114 187 156 163 149 152 136 117 101 81 75 59 62 47 -25 -40 -10 22 40 37 51 55 54 60 69 72 75 68 64 47 39 38 24 22 27 26 27
47 50 32 22 42 57 82 53 25 94 71 48 137 151 132 123 128 132 135 112 84 93 88 83 75 3 -2 -1 25 41 32 37 38 41 37 31 27 27 23 17 23 21 20 21 19 26 23 27 25
34 20 9 51 44 69 63 36 85 89 54 37 65 99 105 113 117 124 133 109 83 99 101 99 25 45 28 17 38 36 30 37 27 19 8 8 1 -4 -5 -1 6 14 17 18 13 13 12 16 16
63 22 76 55 59 42 57 63 72 54 55 43 58 96 135 110 91 109 126 103 95 99 118 64 57 61 32 50 42 47 35 29 10 6 4 1 -1 -1 -6 -6 -3 6 7 8 -4 5 6 2 9
44 85 44 38 51 44 60 36 35 59 61 56 72 76 98 74 103 118 111 114 118 114 101 76 87 59 50 61 53 46 25 20 -7 -2 2 8 6 4 -2 -3 -8 -8 -3 1 1 6 15 14 14
88 67 71 66 56 43 39 37 104 108 58 56 44 66 108 97 100 109 102 119 107 101 95 105 88 64 79 68 44 37 26 14 -5 -7 -7 -2 -0 -3 -9 -18 -22 -20 -11 -0 2 4 11 19 23
62 29 45 23 56 44 46 29 98 85 59 40 66 96 100 106 121 116 135 111 106 100 116 132 85 77 91 68 39 46 30 9 -6 -4 -5 -4 -1 -4 -15 -25 -22 -14 -7 -0 5 12 20 27 28
Wind_Speed
33 32 31 29 26 28 28 32 36 36 40 43 46 49 46 46 43 36 30 28 24 24 24 22 22 23 23 23 24 24 24 24 24 24 24 25 26 28 29 30 32 33 34 35 35 36 35 34 34
34 33 26 29 29 24 30 29 30 33 38 41 44 45 47 44 43 40 35 31 30 27 24 22 23 23 24 25 25 25 25 25 25 25 25 26 27 28 30 31 32 33 33 34 34 35 36 37 37
31 31 28 29 31 28 30 30 29 32 37 42 41 46 42 40 38 39 39 38 34 27 24 24 26 26 26 26 26 26 26 26 27 27 27 27 28 29 30 31 31 31 32 32 35 38 40 42 43
34 24 25 32 26 27 28 30 30 32 36 41 41 43 41 44 36 38 41 41 35 25 24 25 25 25 25 26 27 27 28 28 28 29 29 30 30 30 30 32 33 35 36 37 37 37 38 40 42
29 26 24 28 24 24 27 29 31 35 38 41 40 39 39 45 44 42 42 41 35 25 25 27 27 28 28 28 28 29 30 31 32 32 34 36 37 39 40 40 40 41 42 43 43 41 42 43 43
27 28 21 25 21 21 23 26 29 33 36 38 41 38 39 41 40 39 38 33 28 26 27 28 29 30 31 31 31 32 33 34 35 36 37 39 40 41 43 44 46 48 50 51 51 50 50 50 48
35 24 26 23 16 17 22 26 27 30 33 36 35 34 37 39 38 37 35 34 31 29 29 30 31 32 34 34 34 35 36 37 38 39 40 42 44 45 46 48 49 50 52 55 55 55 55 53 51
45 36 20 19 12 16 20 22 23 27 31 35 36 32 31 35 38 38 36 35 33 31 33 33 33 34 33 34 36 37 38 40 40 41 44 46 48 48 45 50 51 57 57 58 57 57 55 55 54
40 30 24 15 9 15 17 18 23 29 30 33 36 36 36 38 37 37 36 35 35 35 35 34 35 36 36 35 37 35 39 40 41 44 48 49 48 50 51 51 53 53 55 53 54 56 57 54 52
16 23 22 21 5 10 16 16 19 22 26 32 37 40 38 37 35 33 34 35 35 36 37 36 37 39 36 36 39 40 42 44 47 50 52 49 49 49 50 45 48 44 51 46 49 51 51 45 43
13 25 20 11 2 5 17 17 18 20 22 25 29 34 36 36 35 34 35 34 35 37 38 38 38 40 40 39 40 41 43 46 47 52 53 49 47 49 47 45 45 49 49 51 52 49 49 50 48
21 23 18 13 3 3 10 15 17 18 22 27 32 32 34 34 34 34 34 34 34 36 38 40 41 42 43 42 43 44 46 48 48 49 54 51 50 51 49 48 49 50 54 55 55 52 49 48 46
21 16 13 14 9 1 8 10 13 16 22 27 29 29 31 32 34 34 33 33 35 37 40 43 44 45 45 45 46 47 46 46 46 48 53 53 49 50 49 49 49 51 54 55 55 53 52 49 45
15 19 16 17 2 4 4 9 14 12 19 21 23 25 27 29 31 32 33 35 37 38 42 45 47 47 46 46 47 46 46 46 46 48 53 54 53 53 52 51 54 55 58 60 59 59 57 55 52
13 11 11 10 3 3 11 6 10 13 14 16 16 21 24 26 29 33 35 37 39 40 42 44 45 46 45 45 47 48 50 48 48 48 50 54 56 57 56 53 54 59 61 62 62 62 60 59 56
9 8 4 8 6 5 15 4 5 10 11 10 12 16 21 25 28 32 35 38 40 41 43 45 45 46 46 47 46 48 51 51 51 52 51 55 56 58 57 56 58 63 61 63 63 65 66 65 63
9 3 6 7 9 6 10 7 5 8 6 6 7 12 17 21 27 31 34 37 40 42 43 45 47 49 49 48 48 49 51 53 53 54 55 57 56 59 59 57 61 64 62 63 66 68 70 73 72
4 10 10 6 7 3 4 15 2 2 1 3 4 8 14 19 24 27 31 35 39 42 45 47 49 52 52 53 52 49 50 55 55 56 58 59 58 60 60 59 61 64 63 66 68 70 70 72 75
19 15 17 17 22 10 11 11 6 2 2 2 2 7 12 16 20 24 28 32 36 40 43 47 50 54 56 59 61 59 62 58 59 60 61 61 62 63 61 62 63 64 63 66 69 70 71 69 70
19 16 14 19 18 15 11 15 9 3 5 7 7 8 10 13 18 22 25 29 33 37 40 44 50 55 60 60 63 63 62 59 59 61 60 60 63 63 62 63 63 64 63 63 65 67 69 64 64
17 12 10 19 14 23 16 21 13 12 14 12 9 10 10 11 14 18 21 26 29 34 39 44 50 55 61 67 66 69 63 61 64 65 63 62 62 63 62 61 60 61 58 60 60 60 60 61 59
8 16 12 12 9 27 3 35 11 8 12 13 13 11 10 9 16 16 19 22 26 30 37 44 50 57 64 68 72 72 69 67 64 63 62 60 59 60 59 58 56 55 54 54 54 52 52 54 56
15 11 10 9 24 21 15 36 26 8 9 14 14 12 10 10 12 13 15 18 24 29 36 43 50 60 67 70 71 71 69 66 64 64 63 58 56 55 56 55 53 52 50 50 49 50 51 50 51
8 11 14 20 28 32 23 30 25 18 19 11 11 11 10 8 7 9 13 17 23 28 36 44 55 63 67 70 71 68 67 66 65 65 62 59 55 54 52 51 49 48 48 48 48 49 50 52 54
7 5 22 25 24 33 32 32 41 33 34 29 7 7 6 3 2 5 8 15 21 29 38 48 58 63 67 69 67 65 63 60 61 61 58 57 54 52 49 47 46 46 46 47 49 51 51 54 54
6 16 37 30 29 32 29 34 32 32 30 26 22 1 6 4 1 3 8 13 20 28 39 49 56 63 66 66 64 60 58 55 55 54 52 52 50 49 46 44 44 44 46 49 50 51 52 54 54
14 23 30 34 35 40 32 32 26 25 28 21 19 6 4 6 5 3 6 12 20 30 39 47 56 61 62 60 57 54 52 52 50 50 49 49 49 47 46 43 42 44 48 51 52 53 55 55 56
24 13 25 24 37 39 28 36 38 28 23 21 15 6 6 8 6 6 7 12 21 30 36 45 53 56 56 54 53 50 49 47 47 46 45 46 46 46 44 42 44 48 51 54 55 55 56 56 57
20 21 29 36 39 41 47 44 33 34 32 21 15 9 6 7 7 7 8 14 21 27 34 44 50 50 49 49 49 48 46 43 45 42 40 40 42 42 42 45 47 49 52 54 54 54 56 58 59
31 28 20 31 30 35 49 58 33 26 25 26 22 12 9 9 8 8 10 13 19 25 34 42 45 44 43 44 44 43 43 44 42 37 35 36 38 41 45 47 49 52 51 50 53 54 56 59 61
Wind_Direction
15 295 311 114 43 25 13 15 39 45 40 29 24 26 32 24 18 7 14 359 14 342 355 356 349 354 4 8 10 14 15 22 20 19 13 5 360 358 355 351 349 346 346 345 345 345 349 353 351
323 349 25 27 354 352 356 26 22 41 29 31 27 25 19 21 21 42 61 46 41 21 350 354 7 5 5 4 1 1 5 4 9 7 5 2 357 355 352 350 347 344 343 341 339 339 335 333 332
330 338 -0 358 337 336 358 18 35 39 39 23 26 21 20 17 5 42 56 68 48 8 348 356 15 16 9 358 356 358 0 4 3 3 2 0 356 352 348 347 348 348 346 344 337 329 326 322 319
328 10 11 348 344 1 6 21 37 43 35 32 36 28 33 16 18 42 59 65 42 2 350 352 354 357 350 350 343 344 344 346 348 351 352 350 353 354 353 348 344 338 335 335 334 334 331 328 323
337 346 357 354 3 16 25 33 29 30 29 32 32 35 28 28 57 63 68 67 40 357 345 11 357 1 1 358 356 355 353 348 343 344 340 339 336 334 333 333 332 330 329 327 327 329 326 323 321
328 331 344 340 4 19 23 24 37 27 36 43 36 38 28 58 59 62 55 29 7 3 359 4 9 3 12 11 4 359 353 348 344 339 338 334 333 332 331 332 329 325 321 321 321 321 320 318 318
300 322 324 339 3 16 22 23 29 36 31 16 47 29 42 48 54 56 50 36 19 8 11 12 15 17 21 14 3 1 356 350 345 342 339 336 334 332 330 329 329 327 323 319 318 316 314 314 314
280 296 314 323 360 3 24 27 36 34 19 49 22 26 38 55 66 65 50 34 18 9 9 16 11 11 17 24 13 5 357 352 349 346 339 337 332 334 336 329 331 324 324 323 321 316 314 311 310
282 294 291 302 338 20 34 34 30 48 52 24 25 37 60 74 76 68 56 30 18 9 6 8 7 12 6 6 10 15 3 357 352 345 339 335 334 332 331 335 333 333 330 331 328 325 321 316 310
292 289 290 312 10 39 33 53 71 55 51 40 45 55 67 71 67 46 38 33 13 359 356 349 353 348 1 4 1 3 3 355 348 344 340 342 341 338 337 342 343 348 343 344 340 336 334 332 327
301 293 309 319 12 47 15 50 59 73 41 52 54 63 63 62 56 53 38 21 9 6 356 355 356 354 354 2 4 5 2 357 355 348 345 348 347 345 345 346 348 345 348 345 345 342 338 336 330
307 301 315 321 359 356 15 56 27 11 44 59 65 62 61 56 52 50 39 25 11 2 354 347 343 347 353 358 1 0 360 355 353 352 348 349 345 343 341 342 343 344 342 340 340 341 341 341 336
300 323 316 324 318 338 47 24 20 39 59 69 61 56 52 47 48 43 32 22 12 1 354 348 349 354 356 355 354 357 0 0 359 355 351 349 348 342 340 339 340 339 339 338 335 337 336 337 338
319 316 317 315 298 116 76 80 355 42 76 68 56 44 40 39 34 30 23 14 3 357 346 342 348 350 350 356 355 359 1 2 0 357 350 346 343 340 338 336 334 333 333 331 332 331 330 330 329
347 355 2 352 98 130 108 12 351 95 79 67 53 42 38 31 24 16 16 12 6 5 1 357 357 357 357 356 356 355 353 357 356 357 354 346 340 336 334 334 332 329 328 328 328 327 327 327 327
347 347 24 17 88 111 145 330 88 99 87 51 44 31 27 17 13 13 12 10 9 12 7 5 3 0 3 359 0 357 354 356 353 351 349 345 340 336 333 331 330 328 328 327 326 324 322 321 321
316 329 319 359 350 110 152 8 125 123 88 22 17 27 17 13 7 10 13 14 16 16 13 9 4 359 356 356 357 358 354 352 352 351 348 344 340 336 333 331 329 328 328 327 326 323 320 316 315
320 318 319 318 316 338 294 339 107 150 125 18 27 10 6 1 2 10 15 13 13 15 15 14 3 358 360 354 353 355 354 350 348 346 344 342 340 336 333 331 330 328 327 326 325 325 322 317 313
318 311 315 316 309 301 307 314 321 266 236 272 344 343 345 354 7 9 12 11 12 15 15 13 7 2 359 355 351 349 345 345 343 340 339 339 336 335 333 331 329 329 329 328 326 325 324 322 321
307 313 331 329 326 310 314 312 317 297 252 252 292 311 327 350 360 5 9 9 7 11 14 13 7 1 358 354 351 348 344 342 341 339 339 339 336 334 332 330 329 330 329 331 331 330 327 327 329
300 306 328 326 345 321 325 312 289 283 291 281 274 305 317 335 352 359 3 5 8 10 10 9 4 360 356 352 350 347 345 342 338 336 337 337 335 332 332 332 332 332 334 334 336 338 338 334 336
313 311 336 352 2 325 344 320 321 280 267 255 253 277 299 323 341 353 357 4 8 10 9 4 0 357 354 352 348 346 344 342 341 339 339 338 339 335 335 336 338 340 339 341 341 345 346 346 345
332 349 357 5 328 341 323 317 338 347 289 247 234 263 282 299 329 344 1 8 9 8 4 2 359 355 352 350 349 346 345 344 342 339 338 340 341 340 341 342 343 346 347 349 351 348 348 348 349
23 13 357 334 324 317 333 328 331 331 317 281 242 264 270 289 325 358 8 10 8 4 1 358 353 351 351 351 350 349 347 346 345 343 342 341 343 343 348 350 352 352 349 349 346 346 351 348 344
346 4 323 321 322 322 339 332 316 334 337 330 243 238 234 245 334 7 10 3 1 358 356 354 351 351 351 351 352 352 351 352 350 350 349 348 348 348 350 353 352 348 347 346 346 350 351 349 349
301 314 308 322 323 338 343 331 333 345 345 346 340 298 160 172 124 12 3 3 3 359 356 353 353 353 353 354 354 356 357 358 360 2 3 2 3 3 1 356 354 350 352 357 356 358 357 359 358
307 308 319 318 323 320 331 340 348 355 349 0 6 57 128 140 139 78 36 11 3 358 355 356 355 355 357 359 2 4 5 5 6 6 4 5 7 7 6 4 359 2 2 359 355 1 359 1 0
305 335 323 322 316 320 338 333 331 357 356 359 10 49 117 132 120 87 42 15 3 360 2 360 359 360 3 8 9 10 9 10 7 4 1 3 4 4 3 360 4 7 3 3 5 9 10 10 8
302 306 313 315 318 318 316 329 346 338 345 1 11 35 95 120 115 86 42 16 8 7 5 3 2 6 11 14 16 17 21 23 13 356 350 350 352 348 347 355 2 4 8 12 15 16 13 10 8
297 305 313 312 327 322 319 315 346 356 357 352 358 23 63 96 94 77 39 28 17 12 8 6 9 14 20 23 30 38 41 34 4 343 339 339 343 344 350 356 3 9 16 17 15 13 11 8 5